Date String (YYYY-MM-DD hh:mm:ss) UTC,Instrument flags,Ambient pressure (hPa),Sample flow (lpm),Bypass flow (lpm),Sample temperature (°C),Ambient temperature (°C),ASC tube jacket temperature (°C),LED temperature (°C),Box temperature (°C),Sample RH (%),Mass concentration (μg/m³),Mass concentration (μg/m³)
DateTimeUTC,F1_M11,P_M11,Q1_M11,Q2_M11,T1_M11,T2_M11,T3_M11,T4_M11,T5_M11,U1_M11,X2_M11,X0_M11
2021-08-14 14:00:00,,0834.8,4.99,0.00,30.0,29.1,00.0,39.0,31.8,28.2,0009.98,0018.96
2021-08-14 14:01:00,,0834.8,5.01,0.00,30.0,29.2,00.0,39.0,31.9,27.6,0010.02,0018.76
2021-08-14 14:02:00,,0834.9,4.99,0.00,30.0,29.2,00.0,39.0,31.9,26.9,0009.96,0018.19
2021-08-14 14:03:00,,0834.8,5.01,0.00,30.0,28.8,00.0,39.0,31.7,27.0,0009.93,0018.73
2021-08-14 14:04:00,,0834.8,4.99,0.00,30.0,27.1,00.0,39.0,31.3,27.3,0009.89,0019.28
2021-08-14 14:05:00,,0834.7,5.00,0.00,29.8,26.2,00.0,39.0,31.1,27.6,0009.83,0019.05
2021-08-14 14:06:00,,0834.7,5.00,0.00,29.7,26.5,00.0,39.0,31.2,28.1,0009.89,0019.35
2021-08-14 14:07:00,,0834.7,5.02,0.00,29.7,26.9,00.0,38.9,31.2,28.4,0009.99,0019.66
2021-08-14 14:08:00,,0834.7,5.00,0.00,29.6,27.3,00.0,38.9,31.2,28.4,0010.08,0020.73
2021-08-14 14:09:00,,0834.7,4.99,0.00,29.6,27.6,00.0,38.8,31.3,28.2,0010.06,0021.48
2021-08-14 14:10:00,,0834.7,5.00,0.00,29.7,27.9,00.0,38.8,31.4,28.3,0010.05,0021.02
2021-08-14 14:11:00,,0834.7,5.00,0.00,29.7,28.1,00.0,38.8,31.4,28.9,0010.02,0020.17
2021-08-14 14:12:00,,0834.7,5.01,0.00,29.7,28.3,00.0,38.8,31.5,30.0,0009.97,0020.12
2021-08-14 14:13:00,,0834.7,5.00,0.00,29.7,28.4,00.0,38.8,31.5,30.5,0009.99,0020.08
2021-08-14 14:14:00,,0834.7,5.00,0.00,29.7,28.6,00.0,38.8,31.6,30.6,0009.99,0019.41
2021-08-14 14:15:00,,0834.7,5.01,0.00,29.8,28.7,00.0,38.8,31.6,31.5,0010.02,0019.49
2021-08-14 14:16:00,,0834.7,4.99,0.00,29.8,28.8,00.0,38.8,31.6,32.0,0010.06,0020.28
2021-08-14 14:17:00,,0834.7,5.00,0.00,29.8,28.8,00.0,38.9,31.7,32.0,0010.09,0020.63
2021-08-14 14:18:00,,0834.7,5.01,0.00,29.9,28.9,00.0,38.9,31.7,32.4,0010.07,0020.66
2021-08-14 14:19:00,,0834.7,5.01,0.00,29.9,29.0,00.0,38.9,31.7,32.7,0010.03,0020.08
2021-08-14 14:20:00,,0834.7,4.98,0.00,29.9,29.0,00.0,38.9,31.8,33.2,0010.02,0020.56
2021-08-14 14:21:00,,0834.7,5.01,0.00,30.0,29.1,00.0,38.9,31.8,33.0,0009.98,0021.27
2021-08-14 14:22:00,,0834.7,5.00,0.00,30.0,29.1,00.0,39.0,31.9,33.4,0009.83,0021.69
2021-08-14 14:23:00,,0834.7,5.01,0.00,30.0,29.0,00.0,39.0,31.8,33.0,0009.75,0021.72
2021-08-14 14:24:00,,0834.6,4.99,0.00,30.0,27.6,00.0,39.0,31.4,32.6,0009.73,0022.43
2021-08-14 14:25:00,,0834.7,5.00,0.00,29.8,26.4,00.0,38.9,31.1,33.4,0009.66,0023.25
2021-08-14 14:26:00,,0834.7,5.00,0.00,29.7,26.5,00.0,38.9,31.1,33.9,0009.60,0023.67
2021-08-14 14:27:00,,0834.7,5.01,0.00,29.7,26.9,00.0,38.9,31.2,34.2,0009.50,0023.52
2021-08-14 14:28:00,,0834.7,4.99,0.00,29.6,27.3,00.0,38.9,31.2,34.5,0009.40,0022.94
2021-08-14 14:29:00,,0834.7,5.01,0.00,29.6,27.6,00.0,38.8,31.3,34.1,0009.34,0023.37
2021-08-14 14:30:00,,0834.7,5.00,0.00,29.7,27.9,00.0,38.8,31.4,34.0,0009.35,0024.00
2021-08-14 14:31:00,,0834.7,5.01,0.00,29.7,28.1,00.0,38.8,31.4,34.2,0009.40,0023.07
2021-08-14 14:32:00,,0834.7,5.00,0.00,29.7,28.3,00.0,38.8,31.5,33.8,0009.48,0022.28
2021-08-14 14:33:00,,0834.7,5.02,0.00,29.7,28.5,00.0,38.8,31.5,33.5,0009.63,0022.74
2021-08-14 14:34:00,,0834.7,4.99,0.00,29.8,28.6,00.0,38.8,31.6,33.8,0009.71,0022.51
2021-08-14 14:35:00,,0834.7,5.00,0.00,29.8,28.7,00.0,38.8,31.6,34.2,0009.74,0023.03
2021-08-14 14:36:00,,0834.6,4.99,0.00,29.8,28.8,00.0,38.8,31.7,34.4,0009.79,0023.03
2021-08-14 14:37:00,,0834.6,5.00,0.00,29.9,28.9,00.0,38.9,31.7,34.3,0009.85,0022.35
2021-08-14 14:38:00,,0834.7,4.99,0.00,29.9,29.0,00.0,38.9,31.7,34.2,0009.90,0022.14
2021-08-14 14:39:00,,0834.7,5.02,0.00,29.9,29.0,00.0,38.9,31.8,34.0,0009.94,0022.42
2021-08-14 14:40:00,,0834.7,5.01,0.00,29.9,28.4,00.0,38.9,31.6,34.3,0009.94,0022.16
2021-08-14 14:41:00,,0834.7,4.99,0.00,29.8,26.9,00.0,38.9,31.2,34.3,0009.96,0022.09
2021-08-14 14:42:00,,0834.7,5.00,0.00,29.7,26.4,00.0,38.9,31.0,34.5,0009.89,0021.92
2021-08-14 14:43:00,,0834.7,5.00,0.00,29.6,26.7,00.0,38.8,31.1,34.6,0009.82,0021.53
2021-08-14 14:44:00,,0834.7,5.01,0.00,29.6,27.1,00.0,38.8,31.2,35.0,0009.81,0020.92
2021-08-14 14:45:00,,0834.7,5.00,0.00,29.8,27.4,00.0,38.8,31.4,34.6,0009.77,0022.20
2021-08-14 14:46:00,,0834.7,4.99,0.00,29.9,27.7,00.0,38.8,31.4,34.3,0009.72,0021.59
2021-08-14 14:47:00,,0834.7,4.99,0.00,29.9,28.0,00.0,38.8,31.5,34.4,0009.73,0021.22
2021-08-14 14:48:00,,0834.7,4.99,0.00,30.0,28.2,00.0,38.8,31.5,34.0,0009.71,0022.03
2021-08-14 14:49:00,,0834.7,4.99,0.00,30.0,28.4,00.0,38.8,31.6,33.7,0009.68,0022.23
2021-08-14 14:50:00,,0834.7,5.01,0.00,30.1,28.5,00.0,38.9,31.6,33.7,0009.68,0022.10
2021-08-14 14:51:00,,0834.7,4.99,0.00,30.1,28.7,00.0,38.9,31.7,34.0,0009.66,0021.97
2021-08-14 14:52:00,,0834.7,5.01,0.00,30.1,28.8,00.0,38.9,31.7,34.1,0009.57,0021.34
2021-08-14 14:53:00,,0834.7,4.98,0.00,30.2,28.9,00.0,39.0,31.8,33.8,0009.56,0021.67
2021-08-14 14:54:00,,0834.7,5.00,0.00,30.2,28.9,00.0,39.0,31.8,34.0,0009.59,0022.76
2021-08-14 14:55:00,,0834.7,5.00,0.00,30.2,28.2,00.0,39.0,31.6,35.0,0009.55,0022.47
2021-08-14 14:56:00,,0834.7,5.00,0.00,30.2,26.7,00.0,39.0,31.2,35.2,0009.52,0021.70
2021-08-14 14:57:00,,0834.6,5.00,0.00,30.3,26.3,00.0,39.0,31.3,34.9,0009.54,0020.74
2021-08-14 14:58:00,,0834.6,5.01,0.00,30.4,26.6,00.0,39.0,31.4,34.9,0009.52,0020.81
2021-08-14 14:59:00,,0834.7,4.99,0.00,30.6,27.0,00.0,39.0,31.5,34.6,0009.52,0020.57
